Time,TemperatureF,DewpointF,PressureIn,WindDirection,WindDirectionDegrees,WindSpeedMPH,WindSpeedGustMPH,Humidity,HourlyPrecipIn,Conditions,Clouds,dailyrainin,SoftwareType,DateUTC
2013-07-16 00:01:00,79.0,74.0,30.21,SE,138,0.0,1.0,84,0.00,,,0.01,,2013-07-16 05:01:00,
2013-07-16 00:11:00,79.0,74.0,30.22,SE,138,0.0,0.0,84,0.00,,,0.01,,2013-07-16 05:11:00,
2013-07-16 00:22:00,78.0,73.0,30.21,SE,138,0.0,1.0,85,0.00,,,0.01,,2013-07-16 05:22:00,
2013-07-16 00:32:00,78.0,73.0,30.22,SE,138,0.0,0.0,85,0.00,,,0.01,,2013-07-16 05:32:00,
2013-07-16 00:43:00,78.0,73.0,30.21,SE,138,0.0,3.0,86,0.00,,,0.01,,2013-07-16 05:43:00,
2013-07-16 00:52:00,78.0,73.0,30.22,SE,138,1.0,6.0,86,0.00,,,0.01,,2013-07-16 05:52:00,
2013-07-16 01:01:00,78.0,73.0,30.21,SE,138,0.0,0.0,86,0.00,,,0.01,,2013-07-16 06:01:00,
2013-07-16 01:11:00,78.0,74.0,30.21,SE,138,0.0,4.0,87,0.00,,,0.01,,2013-07-16 06:11:00,
2013-07-16 01:22:00,77.0,73.0,30.21,SE,138,0.0,0.0,87,0.00,,,0.01,,2013-07-16 06:22:00,
2013-07-16 01:32:00,77.0,73.0,30.21,SE,138,0.0,0.0,87,0.00,,,0.01,,2013-07-16 06:32:00,
2013-07-16 01:43:00,77.0,73.0,30.21,SE,138,0.0,0.0,88,0.00,,,0.01,,2013-07-16 06:43:00,
2013-07-16 01:52:00,77.0,73.0,30.20,SE,138,0.0,0.0,88,0.00,,,0.01,,2013-07-16 06:52:00,
2013-07-16 02:01:00,77.0,73.0,30.20,SE,138,0.0,0.0,88,0.00,,,0.01,,2013-07-16 07:01:00,
2013-07-16 02:11:00,77.0,74.0,30.20,SE,138,1.0,3.0,89,0.00,,,0.01,,2013-07-16 07:11:00,
2013-07-16 02:22:00,77.0,74.0,30.20,SE,138,0.0,1.0,89,0.00,,,0.01,,2013-07-16 07:22:00,
2013-07-16 02:32:00,76.0,73.0,30.20,SE,138,0.0,0.0,89,0.00,,,0.01,,2013-07-16 07:32:00,
2013-07-16 02:43:00,76.0,73.0,30.20,SE,138,0.0,0.0,89,0.00,,,0.01,,2013-07-16 07:43:00,
2013-07-16 02:52:00,76.0,73.0,30.20,SE,138,0.0,0.0,90,0.00,,,0.01,,2013-07-16 07:52:00,
2013-07-16 03:01:00,76.0,73.0,30.20,SE,138,0.0,0.0,90,0.00,,,0.01,,2013-07-16 08:01:00,
2013-07-16 03:11:00,76.0,73.0,30.20,SE,138,0.0,0.0,90,0.00,,,0.01,,2013-07-16 08:11:00,
2013-07-16 03:22:00,76.0,73.0,30.20,SE,138,0.0,2.0,90,0.00,,,0.01,,2013-07-16 08:22:00,
2013-07-16 03:32:00,76.0,73.0,30.20,SE,138,0.0,0.0,90,0.00,,,0.01,,2013-07-16 08:32:00,
2013-07-16 03:43:00,76.0,73.0,30.20,SE,138,0.0,0.0,90,0.00,,,0.01,,2013-07-16 08:43:00,
2013-07-16 03:52:00,76.0,73.0,30.20,SE,138,0.0,2.0,90,0.00,,,0.01,,2013-07-16 08:52:00,
2013-07-16 04:01:00,75.0,72.0,30.20,SE,138,0.0,2.0,90,0.00,,,0.01,,2013-07-16 09:01:00,
2013-07-16 04:12:00,75.0,72.0,30.21,SE,138,0.0,0.0,90,0.00,,,0.01,,2013-07-16 09:12:00,
2013-07-16 04:22:00,75.0,72.0,30.21,SE,138,0.0,0.0,90,0.00,,,0.01,,2013-07-16 09:22:00,
2013-07-16 04:42:00,75.0,72.0,30.21,SE,138,0.0,0.0,91,0.00,,,0.01,,2013-07-16 09:42:00,
2013-07-16 04:52:00,75.0,72.0,30.22,SE,138,0.0,1.0,91,0.00,,,0.01,,2013-07-16 09:52:00,
2013-07-16 05:01:00,75.0,72.0,30.22,SE,138,0.0,2.0,91,0.00,,,0.01,,2013-07-16 10:01:00,
2013-07-16 05:22:00,75.0,72.0,30.22,SE,138,0.0,2.0,91,0.00,,,0.01,,2013-07-16 10:22:00,
2013-07-16 05:31:00,75.0,72.0,30.23,SE,138,0.0,1.0,91,0.00,,,0.01,,2013-07-16 10:31:00,
2013-07-16 05:43:00,75.0,73.0,30.23,SE,138,0.0,0.0,92,0.00,,,0.01,,2013-07-16 10:43:00,
2013-07-16 05:52:00,75.0,73.0,30.23,SE,138,0.0,0.0,92,0.00,,,0.01,,2013-07-16 10:52:00,
2013-07-16 06:01:00,74.0,72.0,30.24,SE,138,0.0,2.0,92,0.00,,,0.01,,2013-07-16 11:01:00,
2013-07-16 06:11:00,74.0,72.0,30.24,SE,138,0.0,0.0,92,0.00,,,0.01,,2013-07-16 11:11:00,
2013-07-16 06:22:00,74.0,72.0,30.24,SE,138,0.0,0.0,92,0.00,,,0.01,,2013-07-16 11:22:00,
2013-07-16 06:32:00,74.0,72.0,30.24,SE,138,0.0,0.0,92,0.00,,,0.01,,2013-07-16 11:32:00,
2013-07-16 06:42:00,74.0,72.0,30.25,SE,138,0.0,0.0,92,0.00,,,0.01,,2013-07-16 11:42:00,
2013-07-16 06:52:00,75.0,73.0,30.26,SE,138,0.0,3.0,92,0.00,,,0.01,,2013-07-16 11:52:00,
2013-07-16 07:01:00,75.0,73.0,30.25,SE,138,1.0,3.0,92,0.00,,,0.01,,2013-07-16 12:01:00,
2013-07-16 07:11:00,75.0,73.0,30.26,SE,139,0.0,1.0,92,0.00,,,0.01,,2013-07-16 12:11:00,
2013-07-16 07:22:00,75.0,73.0,30.26,SE,139,0.0,3.0,92,0.00,,,0.01,,2013-07-16 12:22:00,
2013-07-16 07:32:00,75.0,72.0,30.26,SE,139,0.0,1.0,91,0.00,,,0.01,,2013-07-16 12:32:00,
2013-07-16 07:43:00,76.0,73.0,30.26,SSW,194,0.0,5.0,90,0.00,,,0.01,,2013-07-16 12:43:00,
2013-07-16 07:53:00,76.0,73.0,30.26,SE,146,0.0,6.0,89,0.00,,,0.01,,2013-07-16 12:53:00,
2013-07-16 08:01:00,77.0,73.0,30.27,SE,146,0.0,1.0,88,0.00,,,0.01,,2013-07-16 13:01:00,
2013-07-16 08:11:00,78.0,73.0,30.27,SE,146,0.0,1.0,86,0.00,,,0.01,,2013-07-16 13:11:00,
2013-07-16 08:22:00,79.0,74.0,30.27,SSW,207,0.0,4.0,84,0.00,,,0.01,,2013-07-16 13:22:00,
2013-07-16 08:32:00,80.0,74.0,30.27,SSW,207,0.0,1.0,83,0.00,,,0.01,,2013-07-16 13:32:00,
2013-07-16 08:42:00,81.0,74.0,30.27,South,181,0.0,2.0,80,0.00,,,0.01,,2013-07-16 13:42:00,
2013-07-16 08:52:00,82.0,75.0,30.28,SSE,154,1.0,4.0,79,0.00,,,0.01,,2013-07-16 13:52:00,
2013-07-16 09:01:00,82.0,74.0,30.28,SSE,158,0.0,2.0,78,0.00,,,0.01,,2013-07-16 14:01:00,
2013-07-16 09:11:00,83.0,75.0,30.28,SSE,157,0.0,3.0,76,0.00,,,0.01,,2013-07-16 14:11:00,
2013-07-16 09:21:00,84.0,75.0,30.28,South,171,0.0,1.0,74,0.00,,,0.01,,2013-07-16 14:21:00,
2013-07-16 09:32:00,84.0,75.0,30.28,South,171,0.0,1.0,74,0.00,,,0.01,,2013-07-16 14:32:00,
2013-07-16 09:43:00,85.0,75.0,30.27,SSW,207,2.0,7.0,73,0.00,,,0.00,,2013-07-16 14:43:00,
2013-07-16 09:52:00,85.0,74.0,30.27,SSW,197,1.0,5.0,70,0.00,,,0.00,,2013-07-16 14:52:00,
2013-07-16 10:01:00,85.0,75.0,30.27,SSW,199,1.0,6.0,71,0.00,,,0.00,,2013-07-16 15:01:00,
2013-07-16 10:11:00,86.0,75.0,30.27,SSW,208,1.0,6.0,69,0.00,,,0.00,,2013-07-16 15:11:00,
2013-07-16 10:21:00,85.0,75.0,30.27,South,184,0.0,3.0,71,0.00,,,0.00,,2013-07-16 15:21:00,
2013-07-16 10:32:00,86.0,75.0,30.27,South,190,0.0,1.0,69,0.00,,,0.00,,2013-07-16 15:32:00,
2013-07-16 10:43:00,86.0,75.0,30.27,South,177,0.0,2.0,69,0.00,,,0.00,,2013-07-16 15:43:00,
2013-07-16 10:53:00,85.0,74.0,30.27,SSW,192,0.0,6.0,69,0.00,,,0.00,,2013-07-16 15:53:00,
2013-07-16 11:01:00,85.0,74.0,30.27,SW,215,0.0,5.0,70,0.00,,,0.00,,2013-07-16 16:01:00,
2013-07-16 11:22:00,87.0,74.0,30.27,SSE,157,0.0,4.0,66,0.00,,,0.00,,2013-07-16 16:22:00,
2013-07-16 11:32:00,88.0,76.0,30.27,SSE,158,0.0,5.0,67,0.00,,,0.00,,2013-07-16 16:32:00,
2013-07-16 11:43:00,89.0,77.0,30.27,SE,131,1.0,6.0,68,0.00,,,0.00,,2013-07-16 16:43:00,
2013-07-16 11:52:00,89.0,76.0,30.27,SSW,209,1.0,4.0,65,0.00,,,0.00,,2013-07-16 16:52:00,
2013-07-16 12:02:00,89.0,75.0,30.27,South,186,0.0,2.0,63,0.00,,,0.00,,2013-07-16 17:02:00,
2013-07-16 12:12:00,89.0,75.0,30.27,SE,131,0.0,6.0,64,0.00,,,0.00,,2013-07-16 17:12:00,
2013-07-16 12:22:00,89.0,75.0,30.27,ESE,107,0.0,4.0,64,0.00,,,0.00,,2013-07-16 17:22:00,
2013-07-16 12:32:00,89.0,75.0,30.27,ESE,107,0.0,4.0,64,0.00,,,0.00,,2013-07-16 17:32:00,
2013-07-16 12:43:00,89.0,75.0,30.27,SSE,153,0.0,5.0,64,0.00,,,0.00,,2013-07-16 17:43:00,
2013-07-16 12:53:00,88.0,75.0,30.27,SSE,153,0.0,6.0,65,0.00,,,0.00,,2013-07-16 17:53:00,
2013-07-16 13:01:00,89.0,76.0,30.26,SE,131,0.0,3.0,66,0.00,,,0.00,,2013-07-16 18:01:00,
2013-07-16 13:11:00,90.0,75.0,30.26,South,177,1.0,3.0,61,0.00,,,0.00,,2013-07-16 18:11:00,
2013-07-16 13:22:00,90.0,74.0,30.26,SSE,166,1.0,5.0,60,0.00,,,0.00,,2013-07-16 18:22:00,
2013-07-16 13:32:00,90.0,75.0,30.26,SSE,167,1.0,4.0,62,0.00,,,0.00,,2013-07-16 18:32:00,
2013-07-16 13:43:00,90.0,74.0,30.25,SSW,202,1.0,5.0,59,0.00,,,0.00,,2013-07-16 18:43:00,
2013-07-16 13:52:00,90.0,74.0,30.25,SSW,202,1.0,5.0,59,0.00,,,0.00,,2013-07-16 18:52:00,
2013-07-16 14:01:00,89.0,74.0,30.25,South,184,0.0,5.0,61,0.00,,,0.00,,2013-07-16 19:01:00,
2013-07-16 14:11:00,88.0,75.0,30.25,ENE,74,0.0,4.0,66,0.00,,,0.00,,2013-07-16 19:11:00,
2013-07-16 14:22:00,88.0,74.0,30.24,SSE,167,0.0,5.0,63,0.00,,,0.00,,2013-07-16 19:22:00,
2013-07-16 14:32:00,89.0,76.0,30.24,SSW,209,1.0,5.0,66,0.00,,,0.00,,2013-07-16 19:32:00,
2013-07-16 14:43:00,90.0,75.0,30.24,South,169,1.0,4.0,62,0.00,,,0.00,,2013-07-16 19:43:00,
2013-07-16 14:52:00,90.0,74.0,30.24,SSE,157,0.0,4.0,60,0.00,,,0.00,,2013-07-16 19:52:00,
2013-07-16 15:03:00,91.0,75.0,30.23,South,171,1.0,4.0,59,0.00,,,0.00,,2013-07-16 20:03:00,
2013-07-16 15:11:00,91.0,74.0,30.23,South,182,0.0,6.0,58,0.00,,,0.00,,2013-07-16 20:11:00,
2013-07-16 15:22:00,92.0,75.0,30.23,SSE,158,0.0,3.0,58,0.00,,,0.00,,2013-07-16 20:22:00,
2013-07-16 15:32:00,92.0,75.0,30.23,South,169,0.0,8.0,57,0.00,,,0.00,,2013-07-16 20:32:00,
2013-07-16 15:43:00,92.0,75.0,30.23,South,173,0.0,7.0,58,0.00,,,0.00,,2013-07-16 20:43:00,
2013-07-16 15:52:00,92.0,74.0,30.22,SSE,165,1.0,7.0,56,0.00,,,0.00,,2013-07-16 20:52:00,
2013-07-16 16:01:00,92.0,74.0,30.22,SSE,165,1.0,7.0,56,0.00,,,0.00,,2013-07-16 21:01:00,
2013-07-16 16:11:00,92.0,75.0,30.22,SSE,164,0.0,5.0,58,0.00,,,0.00,,2013-07-16 21:11:00,
2013-07-16 16:22:00,92.0,75.0,30.22,South,173,1.0,7.0,57,0.00,,,0.00,,2013-07-16 21:22:00,
2013-07-16 16:43:00,91.0,74.0,30.22,SSE,167,0.0,3.0,57,0.00,,,0.00,,2013-07-16 21:43:00,
2013-07-16 16:52:00,91.0,74.0,30.22,East,82,1.0,4.0,58,0.00,,,0.00,,2013-07-16 21:52:00,
2013-07-16 17:01:00,91.0,74.0,30.22,SE,143,0.0,8.0,57,0.00,,,0.00,,2013-07-16 22:01:00,
2013-07-16 17:11:00,91.0,74.0,30.22,SSW,205,2.0,7.0,58,0.00,,,0.00,,2013-07-16 22:11:00,
2013-07-16 17:22:00,91.0,75.0,30.22,SSE,165,0.0,4.0,60,0.00,,,0.00,,2013-07-16 22:22:00,
2013-07-16 17:33:00,91.0,74.0,30.21,SSW,200,1.0,6.0,58,0.00,,,0.00,,2013-07-16 22:33:00,
2013-07-16 17:43:00,91.0,74.0,30.21,SSE,153,0.0,3.0,57,0.00,,,0.00,,2013-07-16 22:43:00,
2013-07-16 17:52:00,91.0,74.0,30.21,SSW,192,0.0,5.0,58,0.00,,,0.00,,2013-07-16 22:52:00,
2013-07-16 18:01:00,91.0,75.0,30.21,SE,140,0.0,7.0,59,0.00,,,0.00,,2013-07-16 23:01:00,
2013-07-16 18:11:00,90.0,74.0,30.21,SSE,162,1.0,8.0,60,0.00,,,0.00,,2013-07-16 23:11:00,
2013-07-16 18:22:00,89.0,73.0,30.21,SSE,158,0.0,9.0,60,0.00,,,0.00,,2013-07-16 23:22:00,
2013-07-16 18:32:00,89.0,73.0,30.21,SSW,201,0.0,3.0,60,0.00,,,0.00,,2013-07-16 23:32:00,
2013-07-16 18:43:00,89.0,73.0,30.21,SSE,168,0.0,3.0,60,0.00,,,0.00,,2013-07-16 23:43:00,
2013-07-16 18:52:00,89.0,73.0,30.21,SSW,200,0.0,5.0,60,0.00,,,0.00,,2013-07-16 23:52:00,
2013-07-16 19:01:00,89.0,74.0,30.21,SSE,166,0.0,6.0,61,0.00,,,0.00,,2013-07-17 00:01:00,
2013-07-16 19:11:00,88.0,73.0,30.22,South,185,0.0,4.0,61,0.00,,,0.00,,2013-07-17 00:11:00,
2013-07-16 19:22:00,88.0,73.0,30.22,South,191,0.0,3.0,61,0.00,,,0.00,,2013-07-17 00:22:00,
2013-07-16 19:33:00,88.0,73.0,30.22,SSE,148,0.0,4.0,62,0.00,,,0.00,,2013-07-17 00:33:00,
2013-07-16 19:42:00,87.0,72.0,30.22,SSE,148,0.0,1.0,62,0.00,,,0.00,,2013-07-17 00:42:00,
2013-07-16 19:52:00,87.0,73.0,30.22,SSE,148,0.0,3.0,63,0.00,,,0.00,,2013-07-17 00:52:00,
2013-07-16 20:01:00,87.0,73.0,30.22,SSE,147,0.0,4.0,63,0.00,,,0.00,,2013-07-17 01:01:00,
2013-07-16 20:11:00,86.0,72.0,30.22,SSE,148,0.0,1.0,63,0.00,,,0.00,,2013-07-17 01:11:00,
2013-07-16 20:22:00,86.0,72.0,30.22,SSE,148,0.0,0.0,63,0.00,,,0.00,,2013-07-17 01:22:00,
2013-07-16 20:32:00,86.0,72.0,30.22,SSE,148,0.0,0.0,64,0.00,,,0.00,,2013-07-17 01:32:00,
2013-07-16 20:43:00,85.0,71.0,30.22,SSE,148,0.0,0.0,64,0.00,,,0.00,,2013-07-17 01:43:00,
2013-07-16 20:53:00,85.0,72.0,30.22,SSE,148,0.0,0.0,65,0.00,,,0.00,,2013-07-17 01:53:00,
2013-07-16 21:01:00,85.0,72.0,30.22,SSE,148,0.0,0.0,65,0.00,,,0.00,,2013-07-17 02:01:00,
2013-07-16 21:11:00,84.0,71.0,30.23,SSE,148,0.0,0.0,66,0.00,,,0.00,,2013-07-17 02:11:00,
2013-07-16 21:22:00,84.0,72.0,30.23,SSE,148,0.0,0.0,67,0.00,,,0.00,,2013-07-17 02:22:00,
2013-07-16 21:32:00,84.0,72.0,30.24,SSE,148,0.0,0.0,67,0.00,,,0.00,,2013-07-17 02:32:00,
2013-07-16 21:43:00,83.0,71.0,30.24,SSE,148,0.0,0.0,67,0.00,,,0.00,,2013-07-17 02:43:00,
2013-07-16 21:53:00,83.0,71.0,30.24,SSE,148,0.0,1.0,68,0.00,,,0.00,,2013-07-17 02:53:00,
2013-07-16 22:01:00,83.0,72.0,30.25,SSE,148,0.0,0.0,69,0.00,,,0.00,,2013-07-17 03:01:00,
2013-07-16 22:11:00,83.0,72.0,30.25,SSE,148,0.0,0.0,70,0.00,,,0.00,,2013-07-17 03:11:00,
2013-07-16 22:22:00,83.0,72.0,30.25,SSE,148,0.0,0.0,70,0.00,,,0.00,,2013-07-17 03:22:00,
2013-07-16 22:32:00,83.0,73.0,30.26,SSE,148,0.0,0.0,71,0.00,,,0.00,,2013-07-17 03:32:00,
2013-07-16 22:53:00,82.0,72.0,30.26,SSE,148,0.0,1.0,72,0.00,,,0.00,,2013-07-17 03:53:00,
2013-07-16 23:01:00,82.0,72.0,30.26,SSE,148,0.0,0.0,72,0.00,,,0.00,,2013-07-17 04:01:00,
2013-07-16 23:11:00,82.0,72.0,30.26,SSE,148,0.0,0.0,73,0.00,,,0.00,,2013-07-17 04:11:00,
2013-07-16 23:22:00,82.0,72.0,30.27,SSE,148,0.0,0.0,73,0.00,,,0.00,,2013-07-17 04:22:00,
2013-07-16 23:32:00,82.0,73.0,30.27,SSE,148,0.0,0.0,74,0.00,,,0.00,,2013-07-17 04:32:00,
2013-07-16 23:43:00,81.0,72.0,30.27,SSE,148,0.0,0.0,75,0.00,,,0.00,,2013-07-17 04:43:00,
2013-07-16 23:53:00,81.0,72.0,30.27,SSE,148,0.0,0.0,75,0.00,,,0.00,,2013-07-17 04:53:00,